| time (UTC) | temp F | wind direction | speed MPH | gust MPH | rain 1hr in | rain 24hr in | rain mn in | humidity % | barometer mb |
| 20260504044519 | 58 | 194 | 0.0 | 0.0 | 0.00 | 0.00 | 0.00 | 58 | 1017.7 |
| 20260504043016 | 57 | 112 | 0.0 | 0.0 | 0.00 | 0.00 | 0.00 | 61 | 1017.6 |
| 20260504041515 | 55 | 112 | 0.0 | 0.0 | 0.00 | 0.00 | 0.00 | 66 | 1017.6 |
| 20260504040006 | 56 | 229 | 0.0 | 0.0 | 0.00 | 0.00 | 0.00 | 64 | 1017.7 |
| 20260504034502 | 58 | 229 | 0.0 | 0.0 | 0.00 | 0.00 | 0.00 | 59 | 1017.4 |
| 20260504033058 | 59 | 229 | 0.0 | 0.0 | 0.00 | 0.00 | 0.00 | 56 | 1017.3 |
| 20260504031601 | 60 | 229 | 0.0 | 3.0 | 0.00 | 0.00 | 0.00 | 55 | 1017.4 |
| 20260504030049 | 60 | 211 | 4.0 | 6.0 | 0.00 | 0.00 | 0.00 | 56 | 1017.6 |
| 20260504024545 | 60 | 233 | 0.0 | 0.0 | 0.00 | 0.00 | 0.00 | 58 | 1017.4 |
| 20260504023040 | 62 | 342 | 0.0 | 0.0 | 0.00 | 0.00 | 0.00 | 56 | 1017.4 |
| 20260504021537 | 63 | 8 | 4.0 | 6.0 | 0.00 | 0.00 | 0.00 | 53 | 1017.5 |
| 20260504020032 | 63 | 249 | 4.0 | 7.0 | 0.00 | 0.00 | 0.00 | 50 | 1017.5 |
| 20260504014531 | 63 | 236 | 4.0 | 6.0 | 0.00 | 0.00 | 0.00 | 53 | 1017.2 |
| 20260504013022 | 63 | 182 | 5.0 | 13.0 | 0.00 | 0.00 | 0.00 | 51 | 1016.8 |
| 20260504011518 | 65 | 205 | 15.0 | 23.0 | 0.00 | 0.00 | 0.00 | 47 | 1016.3 |
| 20260504010013 | 66 | 218 | 10.0 | 18.0 | 0.00 | 0.00 | 0.00 | 42 | 1016.7 |
| 20260504004516 | 67 | 204 | 12.0 | 19.0 | 0.00 | 0.00 | 0.00 | 42 | 1016.8 |
| 20260504003012 | 68 | 227 | 11.0 | 17.0 | 0.00 | 0.00 | 0.00 | 41 | 1016.8 |
| 20260504001604 | 67 | 231 | 12.0 | 19.0 | 0.00 | 0.00 | 0.00 | 41 | 1017.0 |
| 20260503234622 | 70 | 202 | 11.0 | 20.0 | 0.00 | 0.02 | 0.00 | 37 | 1016.9 |
| 20260503233015 | 70 | 200 | 13.0 | 19.0 | 0.00 | 0.02 | 0.00 | 36 | 1016.9 |
| 20260503231605 | 70 | 214 | 14.0 | 20.0 | 0.00 | 0.02 | 0.00 | 36 | 1017.0 |
| 20260503224610 | 70 | 201 | 13.0 | 23.0 | 0.00 | 0.13 | 0.00 | 36 | 1017.2 |
| 20260503223030 | 69 | 218 | 15.0 | 21.0 | 0.00 | 0.13 | 0.00 | 38 | 1017.4 |
| 20260503221622 | 69 | 197 | 12.0 | 21.0 | 0.00 | 0.13 | 0.00 | 36 | 1017.7 |
| 20260503220004 | 69 | 208 | 13.0 | 18.0 | 0.00 | 0.37 | 0.00 | 36 | 1017.8 |
| 20260503214545 | 69 | 207 | 14.0 | 22.0 | 0.00 | 0.37 | 0.00 | 38 | 1018.4 |
| 20260503213004 | 67 | 198 | 11.0 | 22.0 | 0.00 | 0.37 | 0.00 | 37 | 1018.6 |
| 20260503211555 | 68 | 249 | 13.0 | 26.0 | 0.00 | 0.37 | 0.00 | 38 | 1019.0 |
| 20260503204603 | 68 | 226 | 12.0 | 20.0 | 0.00 | 0.37 | 0.00 | 39 | 1019.6 |
| 20260503203020 | 67 | 228 | 10.0 | 17.0 | 0.00 | 0.37 | 0.00 | 38 | 1020.0 |
| 20260503201610 | 68 | 232 | 12.0 | 18.0 | 0.00 | 0.37 | 0.00 | 39 | 1020.3 |
| 20260503194519 | 66 | 252 | 9.0 | 16.0 | 0.00 | 0.37 | 0.00 | 42 | 1020.5 |
| 20260503193009 | 66 | 209 | 10.0 | 17.0 | 0.00 | 0.37 | 0.00 | 44 | 1020.8 |
| 20260503191603 | 65 | 226 | 9.0 | 14.0 | 0.00 | 0.37 | 0.00 | 45 | 1021.0 |
| 20260503184558 | 64 | 218 | 10.0 | 15.0 | 0.00 | 0.37 | 0.00 | 44 | 1021.6 |
| 20260503183018 | 63 | 257 | 8.0 | 14.0 | 0.00 | 0.37 | 0.00 | 51 | 1021.6 |
| 20260503181607 | 62 | 246 | 8.0 | 14.0 | 0.00 | 0.37 | 0.00 | 52 | 1022.0 |
| 20260503180004 | 61 | 249 | 9.0 | 14.0 | 0.00 | 0.37 | 0.00 | 53 | 1022.4 |
| 20260503174558 | 61 | 263 | 10.0 | 14.0 | 0.00 | 0.37 | 0.00 | 54 | 1022.7 |
| 20260503173014 | 60 | 240 | 7.0 | 12.0 | 0.00 | 0.37 | 0.00 | 56 | 1022.7 |
| 20260503171558 | 59 | 248 | 6.0 | 10.0 | 0.00 | 0.37 | 0.00 | 59 | 1022.8 |
| 20260503110109 | 35 | 67 | 0.0 | 0.0 | 0.00 | 0.37 | 0.00 | 31 | 1023.7 |
| 20260503081530 | 39 | 23 | 0.0 | 2.0 | 0.00 | 0.37 | 0.00 | 41 | 1024.1 |
| 20260503071521 | 41 | 25 | 3.0 | 4.0 | 0.00 | 0.37 | 0.00 | 43 | 1024.3 |